Location: Newark
(58.8333°N, 23.5833°E)
Time: 05:45:01
(UTC+00:00)

A-11 Canister half - Pass Details

Date: 23 November 2019
Orbit: 1515 x 1685 km, 47.2° (Epoch: 05 December)

Event Time Altitude Azimuth Distance (km) Brightness Sun altitude
Rises 16:34:51 0° 236° (SW) 4,891 12.7 -20.3°
Reaches altitude 10° 16:38:13 10° 229° (SW) 3,920 11.9 -20.7°
Maximum altitude 16:47:17 40° 165° (SSE) 2,320 9.8 -21.9°
Enters shadow 16:51:57 27° 119° (ESE) 2,843 9.9 -22.5°
Drops below altitude 10° 16:56:25 10° 101° (E) 3,946 - -23.0°
Sets 16:59:48 0° 94° (E) 4,926 - -23.5°
